Terminal Aerodrome Forecast
Issued by NWS Cleveland, OH

Home | Current Version | Previous Version | Graphics & Text | Print | Product List | Glossary On
Versions: 1 2 3 4 5 6 7 8 9 10 11 12 13 14 15 16 17 18 19 20 21
000
FTUS41 KCLE 261100
TAFMFD
TAF
KMFD 261131Z 2612/2712 04005KT P6SM OVC015
     FM261600 02005KT P6SM SCT025 OVC100
      TEMPO 2616/2619 BKN025=

USA.gov is the U.S. government's official web portal to all federal, state and local government web resources and services.